[[{"header":{"parameterUnit":"m.s-1","parameterCategory":1,"la1":30.2991,"la2":30.254,"lo1":-89.0895,"lo2":-89.0444,"dy":0.0017,"dx":0.0017,"nx":28,"ny":28,"refTime":"2023-11-17T03:00:00:Z","depth":0,"parameterNumber":2,"parameterNumberName":"U-component_of_WINDS"},"data":[0,0,0,0,0,0,0,0,0,0,0,0,0,0,0,0,0,0,0,0,0,0,0,0,0,0,0,0,0,0,0,0,0,0,0,0,0,0,0,0,0,0,0,0,0,0,0,0,0,0,0,0,0,0,0,0,0,0,0.1747,0.1747,0,0.1699,0.1699,0.1698,0.1675,0.1675,0.1675,0.1675,0.1628,0.1627,0.1626,0,0,0,0,0,0,0,0,0,0,0,0,0,0.1821,0.182,0.1747,0.1747,0.1746,0.1699,0.1699,0.1698,0.1675,0.1675,0.1675,0.1675,0.1629,0.1627,0.1626,0,0,0,0,0,0,0,0,0,0,0,0,0,0.1783,0.1819,0.1747,0.1729,0.1727,0.17,0.1699,0.1698,0.1675,0.1675,0.1675,0.1675,0.1629,0.1627,0.1626,0.1614,0,0,0.162,0.1619,0,0,0,0,0,0,0,0,0.1785,0.178,0.1732,0.173,0.1728,0.1693,0.1708,0.167,0.1675,0.1695,0.1675,0.1675,0.165,0.1646,0.1638,0.1611,0.1609,0.162,0.1618,0.1618,0.1617,0,0,0,0,0,0,0,0.1788,0.1782,0.1728,0.1732,0.1729,0.1724,0.1718,0.17,0.1673,0.1693,0.1691,0.1686,0.1649,0.1639,0.1636,0.1609,0.162,0.1618,0.1617,0.1616,0.1571,0.1571,0,0,0,0,0,0,0.1793,0.1784,0.173,0.1727,0.1757,0.1723,0.1716,0.1704,0.1673,0.1668,0.1686,0.1685,0.1643,0.1639,0.1635,0.1619,0.1618,0.1616,0.1615,0.1571,0.1571,0.1571,0,0,0,0,0,0,0.1795,0.1788,0.1732,0.1755,0.1747,0.1721,0.1708,0.1703,0.1694,0.1668,0.1663,0.1681,0.1643,0.1637,0.1619,0.1617,0.1615,0.1613,0.1571,0.1571,0.1571,0.1587,0,0,0,0,0,0,0.1797,0.1789,0.1784,0.1755,0.1746,0.1716,0.1708,0.1702,0.169,0.1689,0.1662,0.1658,0.1642,0.1622,0.1617,0.1614,0.1612,0.1571,0.1571,0.1571,0.1587,0.1587,0.1588,0,0,0,0,0,0.1799,0.179,0.1783,0.1777,0.1739,0.1716,0.1711,0.1693,0.169,0.1685,0.1668,0.1658,0.1618,0.162,0.1615,0.1611,0.1571,0.1571,0.1571,0.1586,0.1587,0.1588,0,0,0,0,0,0,0.182,0.1786,0.1778,0.1759,0.1741,0.1712,0.1705,0.1695,0.1677,0.1676,0.1655,0.165,0.1633,0.162,0.1624,0.1598,0.1594,0.1593,0.1607,0.1608,0.1609,0.1612,0.161,0,0,0,0,0,0.1822,0.1805,0.1777,0.1763,0.1754,0.1732,0.1721,0.1709,0.1689,0.1681,0.1663,0.1645,0.1628,0.1617,0.16,0.1585,0.1579,0.158,0.1581,0.1581,0.158,0.1572,0.1572,0.1571,0.1571,0.1571,0,0,0.1826,0.1806,0.1797,0.1767,0.1751,0.1735,0.1725,0.1709,0.1697,0.1679,0.166,0.1647,0.1625,0.1608,0.16,0.1597,0.158,0.1581,0.1582,0.1581,0.1572,0.1572,0.1572,0.1571,0.1571,0.1571,0,0,0.1826,0.1809,0.1795,0.178,0.1756,0.1741,0.1738,0.1711,0.1701,0.1682,0.1668,0.1655,0.1626,0.1611,0.16,0.1595,0.1586,0.159,0.1595,0.1587,0.1587,0.1587,0.1585,0.1585,0.159,0.159,0.159,0,0.1834,0.1809,0.179,0.1774,0.1762,0.1744,0.1731,0.1717,0.1689,0.1682,0.1679,0.1643,0.1627,0.1607,0.1606,0.1597,0.1593,0.1593,0.1588,0.1588,0.1588,0.1586,0.1586,0.159,0.159,0.159,0.159,0,0.1821,0.1805,0.1797,0.177,0.1756,0.1742,0.1721,0.1711,0.17,0.1685,0.1667,0.1647,0.1626,0.1621,0.161,0.1599,0.1598,0.1592,0.1587,0.1589,0.1587,0.1586,0.1592,0.1591,0.1591,0.1591,0,0,0.1832,0.1795,0.1792,0.178,0.1752,0.1739,0.1725,0.1704,0.1695,0.1677,0.1665,0.1641,0.1636,0.1623,0.1611,0.1604,0.1602,0.1598,0.1598,0.16,0.1589,0.1594,0.1594,0.1595,0.1595,0.1595,0.1591,0,0.1828,0.18,0.1783,0.1762,0.1747,0.173,0.1718,0.17,0.1687,0.1672,0.1658,0.1641,0.1635,0.1627,0.1619,0.1604,0.1599,0.1604,0.1584,0.1584,0.159,0.1593,0.1597,0.1595,0.159,0.159,0.159,0,0.1819,0.1801,0.1779,0.1754,0.1747,0.1736,0.1715,0.1702,0.1682,0.1673,0.1659,0.1646,0.1631,0.1628,0.1608,0.1611,0.1602,0.1594,0.1593,0.159,0.1587,0.159,0.1593,0.1593,0.1589,0.1589,0.1589,0,0.1829,0.1799,0.1782,0.1772,0.1743,0.1735,0.1723,0.1703,0.1692,0.1674,0.1667,0.1649,0.1638,0.1625,0.1608,0.1607,0.159,0.1585,0.1582,0.1583,0.1579,0.1579,0.1581,0.1573,0.1573,0.1573,0.1573,0,0.1827,0.1814,0.1786,0.1776,0.1761,0.1742,0.1729,0.1715,0.1697,0.1685,0.167,0.1658,0.1637,0.1623,0.1611,0.1596,0.1591,0.1584,0.1581,0.1585,0.1586,0.1579,0.1579,0.1573,0.1573,0.1573,0.1573,0,0.1835,0.1816,0.1796,0.177,0.1763,0.1754,0.1732,0.1721,0.1707,0.1691,0.1687,0.1665,0.1648,0.163,0.1607,0.1599,0.1585,0.158,0.1591,0.1589,0.1588,0.1588,0.1584,0.1583,0.1577,0.1577,0.1577,0,0.1835,0.1824,0.1797,0.1787,0.1775,0.1759,0.1747,0.1728,0.1717,0.1694,0.1687,0.1669,0.1653,0.1627,0.161,0.1593,0.1588,0.1588,0.1585,0.159,0.1588,0.1589,0.1588,0.1588,0.1589,0.1589,0.1589,0,0.1836,0.1827,0.181,0.1791,0.1777,0.1761,0.1744,0.1737,0.1715,0.1704,0.1686,0.1674,0.1651,0.1633,0.1614,0.1602,0.1592,0.159,0.1588,0.1593,0.16,0.1596,0.1593,0.159,0.159,0.159,0.159,0.159,0.1839,0.183,0.1809,0.1791,0.1777,0.1762,0.1751,0.1735,0.172,0.1699,0.1689,0.1672,0.1653,0.1627,0.1615,0.1602,0.1599,0.1596,0.1596,0.1596,0.1597,0.1602,0.1598,0.1598,0.1598,0.1598,0.1598,0,0.184,0.1826,0.181,0.1787,0.1773,0.1764,0.1746,0.1735,0.172,0.1703,0.1688,0.1668,0.1652,0.1633,0.1616,0.1609,0.1604,0.1605,0.1605,0.1603,0.16,0.1604,0.1609,0.1609,0.1609,0.1609,0.1609,0.1609,0.1838,0.1822,0.1811,0.1787,0.1773,0.1755,0.1745,0.1732,0.1719,0.1697,0.1683,0.1671,0.1654,0.1635,0.1619,0.1614,0.1609,0.1611,0.1605,0.1603,0.1603,0.1602,0.1605,0.161,0.161,0.1608,0.1608,0.1608]},{"header":{"parameterUnit":"m.s-1","parameterCategory":1,"la1":30.2991,"la2":30.254,"lo1":-89.0895,"lo2":-89.0444,"dy":0.0017,"dx":0.0017,"nx":28,"ny":28,"refTime":"2023-11-17T03:00:00:Z","depth":0,"parameterNumber":3,"parameterNumberName":"V-component_of_WINDS"},"data":[0,0,0,0,0,0,0,0,0,0,0,0,0,0,0,0,0,0,0,0,0,0,0,0,0,0,0,0,0,0,0,0,0,0,0,0,0,0,0,0,0,0,0,0,0,0,0,0,0,0,0,0,0,0,0,0,0,0,-2.1721,-2.1721,0,-2.1721,-2.1721,-2.1721,-2.1731,-2.1731,-2.1732,-2.1732,-2.1732,-2.1731,-2.1731,0,0,0,0,0,0,0,0,0,0,0,0,0,-2.1732,-2.1731,-2.1721,-2.1721,-2.1721,-2.1721,-2.1721,-2.1721,-2.1731,-2.1731,-2.1732,-2.1732,-2.1732,-2.1731,-2.1731,0,0,0,0,0,0,0,0,0,0,0,0,0,-2.1729,-2.1731,-2.1721,-2.1726,-2.1727,-2.1721,-2.1721,-2.1721,-2.1731,-2.1731,-2.1732,-2.1732,-2.1732,-2.1731,-2.1731,-2.1721,0,0,-2.173,-2.173,0,0,0,0,0,0,0,0,-2.1729,-2.1728,-2.1726,-2.1726,-2.1726,-2.1727,-2.1725,-2.1721,-2.1731,-2.1729,-2.1732,-2.1732,-2.173,-2.1729,-2.1728,-2.1721,-2.1721,-2.173,-2.173,-2.1729,-2.1729,0,0,0,0,0,0,0,-2.1729,-2.1729,-2.1721,-2.1726,-2.1726,-2.1729,-2.1729,-2.1724,-2.1727,-2.173,-2.173,-2.173,-2.173,-2.1729,-2.1729,-2.1721,-2.173,-2.1729,-2.1729,-2.1729,-2.1706,-2.1706,0,0,0,0,0,0,-2.1729,-2.1729,-2.1721,-2.1721,-2.1729,-2.1728,-2.1729,-2.1726,-2.1727,-2.1728,-2.173,-2.1731,-2.1729,-2.1729,-2.1729,-2.1717,-2.1729,-2.1729,-2.1729,-2.1707,-2.1706,-2.1706,0,0,0,0,0,0,-2.1729,-2.1728,-2.1721,-2.1725,-2.1725,-2.1728,-2.1725,-2.1726,-2.1725,-2.1728,-2.1728,-2.1728,-2.173,-2.1729,-2.1723,-2.1717,-2.1729,-2.1729,-2.1707,-2.1706,-2.1706,-2.1694,0,0,0,0,0,0,-2.1729,-2.1728,-2.1723,-2.1725,-2.1724,-2.1715,-2.1725,-2.1726,-2.1724,-2.1725,-2.1726,-2.1727,-2.173,-2.1723,-2.1723,-2.1717,-2.1728,-2.1708,-2.1707,-2.1706,-2.1695,-2.1693,-2.1692,0,0,0,0,0,-2.1729,-2.172,-2.1723,-2.1722,-2.1719,-2.1715,-2.1714,-2.1718,-2.1724,-2.172,-2.1722,-2.1726,-2.1719,-2.1723,-2.1722,-2.1716,-2.1708,-2.1707,-2.1706,-2.1696,-2.1694,-2.1692,0,0,0,0,0,0,-2.1717,-2.172,-2.1724,-2.1714,-2.1714,-2.1716,-2.1711,-2.1716,-2.1714,-2.1715,-2.172,-2.1721,-2.1714,-2.1715,-2.1719,-2.1707,-2.1714,-2.1713,-2.1707,-2.1705,-2.1703,-2.1703,-2.1728,0,0,0,0,0,-2.1713,-2.1709,-2.1712,-2.1704,-2.1704,-2.1707,-2.1706,-2.1709,-2.1709,-2.1709,-2.1711,-2.1711,-2.1709,-2.1707,-2.1705,-2.1696,-2.1697,-2.1692,-2.169,-2.1689,-2.1687,-2.1684,-2.1682,-2.1703,-2.1703,-2.1703,0,0,-2.1705,-2.1706,-2.1703,-2.1701,-2.1701,-2.1698,-2.1707,-2.1703,-2.17,-2.1709,-2.1703,-2.1704,-2.1705,-2.1698,-2.1695,-2.1698,-2.1682,-2.1688,-2.1687,-2.1686,-2.1683,-2.1681,-2.1679,-2.1702,-2.1703,-2.1703,0,0,-2.1688,-2.1688,-2.1682,-2.1682,-2.1683,-2.1686,-2.1685,-2.1687,-2.1688,-2.1683,-2.169,-2.1687,-2.1683,-2.1683,-2.1683,-2.167,-2.1674,-2.1669,-2.166,-2.1657,-2.1655,-2.1654,-2.1649,-2.1647,-2.1668,-2.1668,-2.1668,0,-2.1677,-2.1672,-2.1678,-2.1673,-2.1673,-2.1681,-2.1675,-2.1675,-2.1675,-2.1675,-2.1679,-2.1675,-2.1676,-2.167,-2.1667,-2.1666,-2.1665,-2.1668,-2.1655,-2.1653,-2.1652,-2.1648,-2.1646,-2.1667,-2.1667,-2.1667,-2.1667,0,-2.1659,-2.1656,-2.1651,-2.1651,-2.165,-2.1645,-2.165,-2.1649,-2.1653,-2.1656,-2.1651,-2.1653,-2.1652,-2.1652,-2.1655,-2.1646,-2.1649,-2.1654,-2.1661,-2.1649,-2.1646,-2.1644,-2.1666,-2.1666,-2.1667,-2.1667,0,0,-2.1632,-2.1638,-2.1636,-2.1637,-2.164,-2.1637,-2.1633,-2.1633,-2.1632,-2.1632,-2.1629,-2.1627,-2.1632,-2.1632,-2.1636,-2.1633,-2.1623,-2.1639,-2.1639,-2.1636,-2.1615,-2.1611,-2.1609,-2.1627,-2.1627,-2.1627,-2.1615,0,-2.1616,-2.1609,-2.1615,-2.1607,-2.1604,-2.1614,-2.161,-2.1612,-2.1615,-2.1614,-2.1618,-2.1616,-2.1623,-2.1623,-2.1621,-2.1625,-2.1619,-2.1626,-2.1625,-2.1625,-2.1624,-2.1606,-2.1601,-2.159,-2.1613,-2.1613,-2.1613,0,-2.1596,-2.1596,-2.1588,-2.1593,-2.1592,-2.1588,-2.159,-2.1588,-2.1591,-2.1594,-2.1595,-2.1601,-2.1598,-2.1606,-2.1603,-2.1608,-2.1608,-2.161,-2.161,-2.1609,-2.1617,-2.1605,-2.1586,-2.1584,-2.1611,-2.1611,-2.1611,0,-2.1577,-2.1576,-2.1571,-2.1571,-2.1577,-2.1575,-2.1577,-2.158,-2.158,-2.1582,-2.1582,-2.1583,-2.1584,-2.1585,-2.1591,-2.1596,-2.1588,-2.1596,-2.1591,-2.159,-2.1587,-2.1587,-2.1568,-2.1588,-2.1588,-2.1588,-2.1588,0,-2.1558,-2.1552,-2.1563,-2.1559,-2.1554,-2.1562,-2.1557,-2.156,-2.1564,-2.1562,-2.1571,-2.1569,-2.1578,-2.1578,-2.1584,-2.1581,-2.1581,-2.1584,-2.1585,-2.1582,-2.1582,-2.1582,-2.1583,-2.1588,-2.1588,-2.1588,-2.1588,0,-2.1535,-2.1542,-2.1537,-2.1544,-2.1545,-2.1541,-2.1547,-2.1545,-2.155,-2.1548,-2.1548,-2.1556,-2.1556,-2.1563,-2.1565,-2.1569,-2.1564,-2.1567,-2.1563,-2.1564,-2.1558,-2.1558,-2.1537,-2.1535,-2.1557,-2.1557,-2.1557,0,-2.1522,-2.1518,-2.1525,-2.1525,-2.1527,-2.1526,-2.1526,-2.1535,-2.1535,-2.154,-2.1537,-2.1539,-2.154,-2.1541,-2.1547,-2.1549,-2.1552,-2.1545,-2.1552,-2.155,-2.1552,-2.1552,-2.1552,-2.1542,-2.1542,-2.1542,-2.1542,0,-2.1498,-2.1502,-2.1502,-2.1504,-2.1505,-2.1507,-2.1509,-2.1509,-2.1518,-2.1519,-2.1519,-2.1521,-2.1523,-2.1525,-2.1529,-2.1532,-2.1539,-2.154,-2.1539,-2.1535,-2.1533,-2.1535,-2.1558,-2.154,-2.154,-2.154,-2.154,-2.154,-2.148,-2.1477,-2.1482,-2.1483,-2.1486,-2.1488,-2.1487,-2.1493,-2.1494,-2.1496,-2.1502,-2.1502,-2.1508,-2.1513,-2.1516,-2.1517,-2.1521,-2.1519,-2.1519,-2.1518,-2.1517,-2.1534,-2.1518,-2.1518,-2.1518,-2.1518,-2.1518,0,-2.1456,-2.146,-2.1461,-2.1465,-2.1466,-2.1473,-2.1477,-2.1477,-2.1477,-2.1481,-2.1483,-2.1485,-2.1487,-2.1495,-2.1498,-2.1497,-2.1501,-2.1498,-2.1498,-2.1499,-2.1513,-2.1514,-2.1495,-2.1495,-2.1495,-2.1495,-2.1495,-2.1495,-2.1444,-2.1441,-2.1446,-2.1445,-2.1449,-2.1449,-2.1451,-2.1454,-2.1458,-2.146,-2.1462,-2.1467,-2.1473,-2.1477,-2.148,-2.1482,-2.1483,-2.1479,-2.1482,-2.1495,-2.1497,-2.1499,-2.15,-2.1479,-2.1479,-2.1467,-2.1467,-2.1467]}]]